RYR8HU EPWA-LOWW

Flight info

Callsign RYR8HU
Flight time N/A
Altitude 28000
Route EVINA7G EVINA NAVUR BAVOK MIKOV MIKOV8W
Aircraft A320/M-SDE3FGHIRWY/LB1

Departure

Time N/A
Airport Warsaw Chopin Airport (EPWA)

Arrival

Time 2026-04-24 19:44
Airport Vienna International Airport (LOWW)
Time Latitude Longitude Altitude Speed Heading
2026-04-24 18:54 51.83401 20.44066 15375 ft 366 kts 221°
2026-04-24 18:55 51.79384 20.38890 16519 ft 372 kts 222°
2026-04-24 18:55 51.77346 20.36269 17076 ft 376 kts 222°
2026-04-24 18:55 51.75297 20.33635 17630 ft 379 kts 222°
2026-04-24 18:56 51.73244 20.31000 18176 ft 382 kts 222°
2026-04-24 18:56 51.71164 20.28332 18663 ft 385 kts 222°
2026-04-24 18:56 51.69049 20.25626 19158 ft 387 kts 223°
2026-04-24 18:56 51.66937 20.22927 19645 ft 389 kts 223°
2026-04-24 18:57 51.64810 20.20211 20135 ft 391 kts 223°
2026-04-24 18:57 51.62707 20.17538 21118 ft 376 kts 223°
2026-04-24 18:57 51.60671 20.14957 21902 ft 372 kts 224°
2026-04-24 18:57 51.58631 20.12358 22329 ft 376 kts 224°
2026-04-24 18:58 51.56575 20.09738 22792 ft 378 kts 224°
2026-04-24 18:58 51.54505 20.07104 23255 ft 380 kts 225°
2026-04-24 18:58 51.52439 20.04483 23863 ft 374 kts 225°
2026-04-24 18:58 51.50426 20.01945 24743 ft 362 kts 225°
2026-04-24 18:59 51.48444 19.99438 25124 ft 364 kts 225°
2026-04-24 18:59 51.46441 19.96895 25453 ft 367 kts 225°
2026-04-24 18:59 51.44436 19.94355 25896 ft 365 kts 225°
2026-04-24 18:59 51.42483 19.91897 26491 ft 360 kts 226°
2026-04-24 19:00 51.40511 19.89407 26796 ft 362 kts 226°
2026-04-24 19:00 51.38524 19.86899 27091 ft 365 kts 226°
2026-04-24 19:00 51.36526 19.84381 27407 ft 367 kts 226°
2026-04-24 19:00 51.34482 19.81812 27699 ft 370 kts 226°
2026-04-24 19:01 51.32442 19.79248 27896 ft 374 kts 226°
2026-04-24 19:01 51.30382 19.76662 28002 ft 382 kts 225°
2026-04-24 19:01 51.28264 19.74003 27999 ft 393 kts 225°
2026-04-24 19:01 51.26080 19.71265 27999 ft 403 kts 225°
2026-04-24 19:02 51.24607 19.69425 27998 ft 410 kts 225°
2026-04-24 19:02 51.21554 19.65617 28001 ft 423 kts 225°
2026-04-24 19:02 51.19245 19.62742 28002 ft 431 kts 224°
2026-04-24 19:03 51.14417 19.56747 28003 ft 444 kts 224°
2026-04-24 19:03 51.09457 19.50605 28003 ft 457 kts 224°
2026-04-24 19:04 51.04425 19.44397 28014 ft 457 kts 224°
2026-04-24 19:04 50.99406 19.38218 28015 ft 457 kts 224°
2026-04-24 19:05 50.94319 19.31961 28022 ft 464 kts 224°
2026-04-24 19:05 50.89214 19.25709 28023 ft 463 kts 224°
2026-04-24 19:06 50.84138 19.19509 28025 ft 463 kts 223°
2026-04-24 19:06 50.79026 19.13281 28024 ft 463 kts 223°
2026-04-24 19:07 50.73939 19.07101 28023 ft 463 kts 223°
2026-04-24 19:07 50.69678 19.01939 28021 ft 463 kts 223°
2026-04-24 19:08 50.63694 18.94710 28025 ft 467 kts 223°
2026-04-24 19:08 50.58496 18.88445 28022 ft 470 kts 223°
2026-04-24 19:09 50.53293 18.82199 28023 ft 470 kts 223°
2026-04-24 19:09 50.48085 18.75963 28023 ft 470 kts 223°
2026-04-24 19:10 50.42875 18.69742 28030 ft 470 kts 223°
2026-04-24 19:10 50.37660 18.63533 28046 ft 470 kts 223°
2026-04-24 19:11 50.32431 18.57324 28041 ft 471 kts 222°
2026-04-24 19:11 50.27221 18.51154 28049 ft 471 kts 222°
2026-04-24 19:12 50.21980 18.44966 28034 ft 471 kts 222°
2026-04-24 19:12 50.16768 18.38829 28041 ft 471 kts 222°
2026-04-24 19:13 50.12374 18.33671 28052 ft 471 kts 222°
2026-04-24 19:13 50.06291 18.26547 28051 ft 472 kts 221°
2026-04-24 19:14 50.01037 18.20409 28049 ft 471 kts 222°
2026-04-24 19:14 49.96029 18.13880 28049 ft 469 kts 226°
2026-04-24 19:15 49.91076 18.07266 28048 ft 469 kts 225°
2026-04-24 19:15 49.86119 18.00678 28047 ft 470 kts 225°
2026-04-24 19:16 49.78653 17.90797 28045 ft 470 kts 225°
2026-04-24 19:16 49.73675 17.84233 28048 ft 470 kts 225°
2026-04-24 19:17 49.68711 17.77706 28047 ft 471 kts 225°
2026-04-24 19:17 49.63729 17.71172 28042 ft 471 kts 225°
2026-04-24 19:18 49.58726 17.64630 28040 ft 471 kts 225°
2026-04-24 19:18 49.53726 17.58110 28039 ft 469 kts 225°
2026-04-24 19:19 49.48736 17.51620 28037 ft 470 kts 225°
2026-04-24 19:19 49.43890 17.45334 28026 ft 470 kts 224°
2026-04-24 19:20 49.38878 17.38852 28027 ft 470 kts 224°
2026-04-24 19:20 49.33903 17.32433 27994 ft 471 kts 224°
2026-04-24 19:21 49.31402 17.29214 27757 ft 471 kts 224°
2026-04-24 19:21 49.28892 17.25987 27494 ft 471 kts 224°
2026-04-24 19:21 49.26368 17.22747 27229 ft 471 kts 224°
2026-04-24 19:21 49.23862 17.19534 26970 ft 472 kts 224°
2026-04-24 19:22 49.22151 17.17343 26798 ft 472 kts 224°
2026-04-24 19:22 49.18815 17.13078 26457 ft 468 kts 224°
2026-04-24 19:22 49.16326 17.09902 26207 ft 467 kts 224°
2026-04-24 19:22 49.13824 17.06712 26056 ft 469 kts 223°
2026-04-24 19:23 49.11266 17.03617 26035 ft 472 kts 217°
2026-04-24 19:23 49.08359 17.01225 26041 ft 478 kts 206°
2026-04-24 19:23 49.05298 16.99251 26038 ft 478 kts 206°
2026-04-24 19:23 49.02226 16.97308 26040 ft 478 kts 205°
2026-04-24 19:24 48.99146 16.95363 26038 ft 478 kts 205°
2026-04-24 19:24 48.96071 16.93415 26035 ft 478 kts 205°
2026-04-24 19:24 48.92996 16.91463 26034 ft 478 kts 206°
2026-04-24 19:24 48.89934 16.89518 26034 ft 478 kts 206°
2026-04-24 19:25 48.86862 16.87566 26031 ft 478 kts 205°
2026-04-24 19:25 48.83778 16.85609 25975 ft 478 kts 205°
2026-04-24 19:25 48.80714 16.83667 25740 ft 478 kts 205°
2026-04-24 19:25 48.77647 16.81726 25307 ft 479 kts 205°
2026-04-24 19:26 48.75607 16.80435 24909 ft 479 kts 205°
2026-04-24 19:26 48.72525 16.78489 24304 ft 478 kts 205°
2026-04-24 19:26 48.69452 16.76550 23710 ft 480 kts 205°
2026-04-24 19:26 48.66394 16.74625 23302 ft 472 kts 205°
2026-04-24 19:27 48.63400 16.72746 23103 ft 456 kts 205°
2026-04-24 19:27 48.60520 16.70942 22879 ft 440 kts 205°
2026-04-24 19:27 48.57631 16.69446 22102 ft 440 kts 197°
2026-04-24 19:27 48.54628 16.68551 21331 ft 440 kts 189°
2026-04-24 19:28 48.51590 16.68100 20629 ft 437 kts 187°
2026-04-24 19:28 48.48582 16.67655 19970 ft 433 kts 187°
2026-04-24 19:28 48.45592 16.67201 19316 ft 430 kts 187°
2026-04-24 19:28 48.42624 16.66745 18664 ft 427 kts 187°
2026-04-24 19:29 48.36757 16.65847 17263 ft 421 kts 187°
2026-04-24 19:29 48.33890 16.65411 16846 ft 410 kts 187°
2026-04-24 19:29 48.31070 16.64984 16381 ft 402 kts 187°
2026-04-24 19:30 48.28245 16.64555 15549 ft 404 kts 187°
2026-04-24 19:30 48.25485 16.64135 14943 ft 401 kts 188°
2026-04-24 19:30 48.22737 16.63773 14621 ft 391 kts 182°
2026-04-24 19:30 48.20076 16.64345 14342 ft 382 kts 162°
2026-04-24 19:31 48.17746 16.66124 13882 ft 377 kts 142°
2026-04-24 19:31 48.15995 16.68921 13400 ft 369 kts 120°
2026-04-24 19:31 48.14857 16.72303 12917 ft 362 kts 111°
2026-04-24 19:31 48.13884 16.75787 12187 ft 363 kts 110°
2026-04-24 19:32 48.12912 16.79194 11885 ft 345 kts 111°
2026-04-24 19:32 48.11944 16.82379 11556 ft 331 kts 112°
2026-04-24 19:32 48.10961 16.85467 10967 ft 327 kts 113°
2026-04-24 19:32 48.09976 16.88468 10645 ft 313 kts 114°
2026-04-24 19:33 48.09030 16.91305 10455 ft 295 kts 114°
2026-04-24 19:33 48.08124 16.94013 10062 ft 291 kts 114°
2026-04-24 19:33 48.07223 16.96714 9554 ft 288 kts 114°
2026-04-24 19:33 48.06332 16.99384 9028 ft 285 kts 114°
2026-04-24 19:34 48.05450 17.02029 8507 ft 282 kts 114°
2026-04-24 19:34 48.04626 17.04670 8008 ft 279 kts 112°
2026-04-24 19:34 48.03512 17.06999 7501 ft 275 kts 142°
2026-04-24 19:34 48.01860 17.08278 7029 ft 264 kts 173°
2026-04-24 19:35 48.00094 17.08214 6649 ft 247 kts 206°
2026-04-24 19:35 47.98757 17.06957 6453 ft 222 kts 237°
2026-04-24 19:35 47.98125 17.04975 6033 ft 210 kts 263°
2026-04-24 19:35 47.97870 17.02841 5730 ft 205 kts 265°
2026-04-24 19:36 47.97644 17.00804 5604 ft 192 kts 268°
2026-04-24 19:36 47.97681 16.98856 5316 ft 186 kts 285°
2026-04-24 19:36 47.98061 16.97050 5219 ft 184 kts 295°
2026-04-24 19:36 47.98592 16.95286 5220 ft 186 kts 298°
2026-04-24 19:37 47.99154 16.93566 5222 ft 184 kts 298°
2026-04-24 19:37 47.99717 16.91841 5230 ft 184 kts 298°
2026-04-24 19:37 48.00274 16.90135 5272 ft 177 kts 298°
2026-04-24 19:37 48.00792 16.88545 5111 ft 166 kts 298°
2026-04-24 19:38 48.01290 16.87021 4891 ft 162 kts 298°
2026-04-24 19:38 48.01788 16.85496 4661 ft 163 kts 298°
2026-04-24 19:38 48.02286 16.83974 4443 ft 163 kts 298°
2026-04-24 19:38 48.02785 16.82446 4221 ft 164 kts 298°
2026-04-24 19:39 48.03281 16.80926 4002 ft 161 kts 299°
2026-04-24 19:39 48.03771 16.79427 3804 ft 164 kts 299°
2026-04-24 19:39 48.04260 16.77925 3573 ft 155 kts 299°
2026-04-24 19:39 48.04734 16.76475 3378 ft 155 kts 299°
2026-04-24 19:40 48.05202 16.75043 3167 ft 155 kts 299°
2026-04-24 19:40 48.05672 16.73600 2967 ft 151 kts 299°
2026-04-24 19:40 48.06103 16.72274 2767 ft 133 kts 300°
2026-04-24 19:40 48.06502 16.71058 2594 ft 131 kts 300°
2026-04-24 19:41 48.06913 16.69799 2421 ft 130 kts 300°
2026-04-24 19:41 48.07296 16.68624 2247 ft 129 kts 300°
2026-04-24 19:41 48.07688 16.67424 2080 ft 128 kts 300°
2026-04-24 19:41 48.08081 16.66217 1899 ft 129 kts 300°
2026-04-24 19:42 48.08477 16.65003 1731 ft 131 kts 300°
2026-04-24 19:42 48.08881 16.63767 1540 ft 133 kts 299°
2026-04-24 19:42 48.09286 16.62526 1369 ft 133 kts 298°
2026-04-24 19:42 48.09687 16.61300 1185 ft 132 kts 297°
2026-04-24 19:43 48.10052 16.60176 1028 ft 133 kts 297°
2026-04-24 19:43 48.10463 16.58918 851 ft 132 kts 296°
2026-04-24 19:43 48.10858 16.57698 665 ft 131 kts 297°
2026-04-24 19:43 48.11246 16.56527 615 ft 107 kts 295°
2026-04-24 19:44 48.11483 16.55795 623 ft 42 kts 298°
2026-04-24 19:44 48.11599 16.55453 614 ft 26 kts 305°
2026-04-24 19:44 48.11674 16.55325 614 ft 11 kts 311°
2026-04-24 19:44 48.11705 16.55274 620 ft 12 kts 316°
2026-04-24 19:45 48.11757 16.55202 620 ft 13 kts 316°
2026-04-24 19:45 48.11837 16.55142 619 ft 13 kts
2026-04-24 19:45 48.11891 16.55189 620 ft 6 kts 83°
2026-04-24 19:46 48.11889 16.55209 613 ft 1 kts 105°
2026-04-24 19:46 48.11871 16.55252 610 ft 7 kts 130°
2026-04-24 19:46 48.11842 16.55337 621 ft 11 kts 116°
2026-04-24 19:46 48.11844 16.55418 612 ft 4 kts 42°
2026-04-24 19:47 48.11882 16.55438 610 ft 8 kts 16°
2026-04-24 19:47 48.11918 16.55485 621 ft 4 kts 70°
2026-04-24 19:47 48.11934 16.55529 624 ft 6 kts 62°
2026-04-24 19:47 48.11949 16.55574 624 ft 3 kts 62°
2026-04-24 19:48 48.11942 16.55555 618 ft 0 kts 62°
2026-04-24 19:48 48.11949 16.55575 624 ft 2 kts 63°
2026-04-24 19:48 48.11950 16.55579 623 ft 0 kts 63°
2026-04-24 19:56 48.11950 16.55578 611 ft 0 kts 63°